User: anonymous   Login
Location: Vigo di Fassa
(46.4167°N, 11.6667°E)
Time: 23:55:26
(UTC+00:00)
Language:

Cosmos 1777 Rocket - Orbit

View from above orbital plane
View from above orbital plane
View from above satellite
View from above satellite

Ground track
Ground track

The orbit data is extracted from the following two-line orbital elements,

1 16953U 86070B   21136.52268552 -.00000026  00000-0  13389-6 0  9992
2 16953  74.0093 162.5686 0011464  37.6294 322.5659 14.37423679817183
Epoch (UTC): 16 May 2021 12:32:40
Eccentricity: 0.0011464
inclination: 74.0093°
perigee height: 759 km
apogee height: 775 km
right ascension of ascending node: 162.5686°
argument of perigee: 37.6294°
revolutions per day: 14.37423679
mean anomaly at epoch: 322.5659°
orbit number at epoch: 81718

The dashed part of the orbit path shows where the satellite is in the earth's shadow,  

DLR